Hourly Weather Roundup
Issued by NWS Central Illinois

Home | Current Version | Previous Version | Text Only | Print | Product List | Glossary On
Versions: 1 2 3 4 5 6 7 8 9 10 11 12 13 14 15 16 17 18 19 20 21 22 23 24 25 26 27 28 29 30 31 32 33 34 35 36 37 38 39 40 41 42 43 44 45 46 47 48 49 50
000
NZUS43 KILX 242210
HWRILX

Area Weather Roundup
National Weather Service Lincoln IL
500 PM CDT WED MAY 24 2017

NOTE:  "FAIR" indicates few or no clouds below 12,000 feet, with
       no sigificant weather and/or obstructions to visibility.


CITY           SKY/WX    TMP DP  RH WIND       PRES   REMARKS
Bloomington    CLOUDY    61  55  81 N16       29.54F
Champaign      LGT RAIN  60  56  86 N13       29.50F
Danville       LGT RAIN  59  58  95 N10       29.45F
Decatur        LGT RAIN  61  56  83 N9        29.51S
Effingham      CLOUDY    61  59  91 W5        29.51F
Flora          RAIN      61  56  86 NW5       29.51S
Galesburg      PTSUNNY   62  53  74 N15       29.59R
Jacksonville   CLOUDY    64  52  64 N13       29.55S
Lacon          CLOUDY    60  55  85 N10       29.56F
Lawrenceville  LGT RAIN  58  56  93 NW16      29.47S FOG
Litchfield     PTSUNNY   61  52  72 NW13      29.53S
$$


CITY           SKY/WX    TMP DP  RH WIND       PRES   REMARKS
Lincoln        CLOUDY    64  56  76 N16       29.54R
Macomb         CLOUDY    58  55  88 W10       29.60S
Mattoon        LGT RAIN  59  58  96 N13       29.49F
Mt Carmel AP   CLOUDY    60  56  87 NW9       29.48R
Olney-Noble AP LGT RAIN  59  59 100 NW8       29.50F
Paris AP       LGT RAIN  58  57  97 N6        29.48F
Peoria         CLOUDY    61  54  77 N8G17     29.56F
Pontiac        CLOUDY    61  57  85 N10       29.54S
Rantoul        DRIZZLE   61  57  87 N15       29.50F
Robinson       DRIZZLE   58  57  94 NW14G21   29.48S
Springfield    LGT RAIN  63  55  75 NW9       29.54R
Taylorville    CLOUDY    63  54  71 NW12      29.52S
$$

...REGIONAL REPORTS...


CITY           SKY/WX    TMP DP  RH WIND       PRES   REMARKS
Chicago O`Hare CLOUDY    61  50  67 NE21G26   29.55R
Kankakee       DRIZZLE   61  55  80 N5        29.53S
Moline         PTSUNNY   62  51  67 N9        29.60S
Mount Sterling CLOUDY    59  51  74 N10       29.58S
Mount Vernon     N/A     63  52  67 CALM      29.52S
Pittsfield     SUNNY     64  52  63 NW14G20   29.59R
Quincy         CLOUDY    57  51  80 N14       29.59R
Rockford       CLOUDY    60  53  77 N14       29.60S
$$


CITY           SKY/WX    TMP DP  RH WIND       PRES   REMARKS
Burlington     MOSUNNY   65  52  62 N13       29.59S
Cedar Rapids   CLOUDY    59  51  75 N10       29.64S
Des Moines     PTSUNNY   63  49  60 N9        29.67S
Kirksville     LGT RAIN  55  52  89 W7        29.65R FOG
Ottumwa        MOSUNNY   62  48  60 N17       29.64S
St Louis       PTSUNNY   69  47  45 NW14G21   29.55S
$$


CITY           SKY/WX    TMP DP  RH WIND       PRES   REMARKS
Terre Haute    LGT RAIN  62  56  80 N9        29.46S
Evansville     LGT RAIN  59  54  83 W7        29.50R
Indianapolis   LGT RAIN  60  56  86 N8        29.43F
Lafayette      LGT RAIN  60  57  89 N9        29.46F
Madison        CLOUDY    55  51  86 N15       29.64S
Milwaukee      CLOUDY    59  51  75 N21G31    29.59F
$$






USA.gov is the U.S. government's official web portal to all federal, state and local government web resources and services.